KV5TX Weather Reports


time (UTC)temp
C
wind
direction
speed
KPH
gust
KPH
rain 1hr
cm
rain 24hr
cm
rain mn
cm
humidity
%
barometer
mb
20260507010235 16 225 0.0 0.0 0.00 0.00 0.00 76 1006.4
20260507005732 16 305 0.0 0.0 0.00 0.00 0.00 75 1006.0
20260507005228 16 226 0.0 0.0 0.00 0.00 0.00 75 1006.4
20260507004725 16 230 0.0 0.0 0.00 0.00 0.00 75 1006.7
20260507004223 16 227 0.0 0.0 0.00 0.00 0.00 75 1006.4
20260507003719 16 339 0.0 0.0 0.00 0.00 0.00 75 1006.4
20260507003214 16 272 0.0 0.0 0.00 0.00 0.00 75 1006.0
20260507002710 16 237 0.0 0.0 0.00 0.00 0.00 75 1005.7
20260507002206 16 334 0.0 0.0 0.00 0.00 0.00 75 1006.0
20260507001704 16 238 0.0 0.0 0.00 0.00 0.00 75 1006.0
20260507001201 16 258 0.0 0.0 0.00 0.00 0.00 75 1006.0
20260507000657 16 251 0.0 0.0 0.00 0.00 0.00 75 1005.7
20260507000152 16 240 0.0 0.0 0.00 0.00 0.00 75 1005.7
20260506235650 16 351 0.0 4.8 0.00 0.00 0.00 75 1005.7
20260506235145 16 234 0.0 0.0 0.00 0.00 0.00 75 1006.0
20260506234642 16 258 0.0 0.0 0.00 0.00 0.00 75 1006.0
20260506234139 17 308 0.0 4.8 0.00 0.00 0.00 75 1005.7
20260506233636 17 274 0.0 0.0 0.00 0.00 0.00 75 1005.7
20260506233133 17 274 0.0 0.0 0.00 0.00 0.00 75 1006.0
20260506232629 17 235 0.0 0.0 0.00 0.00 0.00 75 1005.7
20260506232125 17 344 0.0 0.0 0.00 0.00 0.00 75 1005.7
20260506231622 17 338 0.0 0.0 0.00 0.00 0.00 74 1005.7
20260506231121 17 212 0.0 0.0 0.00 0.00 0.00 74 1005.7
20260506230617 17 222 0.0 0.0 0.00 0.00 0.00 74 1005.7
20260506230115 17 243 0.0 0.0 0.00 0.00 0.00 74 1005.7
20260506225611 17 268 0.0 0.0 0.00 0.00 0.00 74 1005.7
20260506225107 17 240 0.0 0.0 0.00 0.00 0.00 74 1005.7
20260506224604 17 269 0.0 0.0 0.00 0.00 0.00 74 1006.0
20260506224101 17 287 0.0 0.0 0.00 0.00 0.00 75 1005.7
20260506223556 17 258 0.0 0.0 0.00 0.00 0.00 74 1005.7
20260506223053 17 247 0.0 0.0 0.00 0.00 0.00 73 1006.0
20260506222550 17 349 0.0 0.0 0.00 0.00 0.00 73 1005.7
20260506222046 17 220 0.0 0.0 0.00 0.00 0.00 74 1005.7
20260506221544 18 259 0.0 0.0 0.00 0.00 0.00 73 1005.7
20260506221042 18 354 0.0 0.0 0.00 0.00 0.00 72 1005.2
20260506220537 18 230 0.0 0.0 0.00 0.00 0.00 72 1005.7
20260506220033 18 336 0.0 0.0 0.00 0.00 0.00 72 1005.7
20260506215530 18 238 0.0 0.0 0.00 0.00 0.00 72 1005.7
20260506215026 18 251 0.0 0.0 0.00 0.00 0.00 72 1005.7
20260506214523 18 219 0.0 0.0 0.00 0.00 0.00 71 1005.2
20260506214020 18 241 0.0 0.0 0.00 0.00 0.00 73 1005.2
20260506213518 18 233 0.0 0.0 0.00 0.00 0.00 73 1005.2
20260506213015 18 268 0.0 4.8 0.00 0.00 0.00 72 1005.2
20260506212512 18 236 0.0 0.0 0.00 0.00 0.00 72 1005.7
20260506212007 18 243 0.0 0.0 0.00 0.00 0.00 72 1005.2
20260506211503 18 226 0.0 0.0 0.00 0.00 0.00 72 1005.2
20260506211000 19 223 0.0 0.0 0.00 0.00 0.00 73 1005.7
20260506210456 19 3 0.0 4.8 0.00 0.00 0.00 72 1005.7
20260506205953 20 337 0.0 4.8 0.00 0.00 0.00 72 1005.7
20260506205449 20 289 0.0 4.8 0.00 0.00 0.00 71 1005.7
20260506204946 20 270 0.0 0.0 0.00 0.00 0.00 71 1005.7
20260506204444 20 198 0.0 4.8 0.00 0.00 0.00 71 1005.2
20260506203941 20 248 0.0 0.0 0.00 0.00 0.00 72 1005.2
20260506203438 20 340 0.0 0.0 0.00 0.00 0.00 73 1005.2
20260506202935 21 296 0.0 0.0 0.00 0.00 0.00 71 1005.7
20260506202432 21 241 0.0 0.0 0.00 0.00 0.00 71 1005.7
20260506201928 21 223 0.0 0.0 0.00 0.00 0.00 71 1005.7
20260506201426 21 221 0.0 0.0 0.00 0.00 0.00 69 1005.7
20260506200922 21 231 0.0 0.0 0.00 0.00 0.00 71 1005.2
20260506200419 21 277 0.0 0.0 0.00 0.00 0.00 71 1005.7
20260506195915 21 348 1.6 4.8 0.00 0.00 0.00 69 1005.2
20260506195413 21 321 0.0 0.0 0.00 0.00 0.00 72 1005.2
20260506194909 21 240 0.0 0.0 0.00 0.00 0.00 71 1005.2
20260506194406 21 270 0.0 0.0 0.00 0.00 0.00 71 1005.2
20260506193903 21 14 0.0 0.0 0.00 0.00 0.00 71 1005.2
20260506193400 21 317 0.0 0.0 0.00 0.00 0.00 71 1005.2
20260506192856 21 281 0.0 0.0 0.00 0.00 0.00 72 1005.2
20260506192353 22 357 1.6 4.8 0.00 0.00 0.00 73 1005.2
20260506191850 22 281 0.0 0.0 0.00 0.00 0.00 72 1005.2
20260506191347 23 331 0.0 4.8 0.00 0.00 0.00 72 1005.2
20260506190844 23 307 0.0 4.8 0.00 0.00 0.00 71 1005.7
20260506190340 24 271 0.0 0.0 0.00 0.00 0.00 72 1005.2
20260506185837 25 246 0.0 0.0 0.00 0.00 0.00 72 1005.2
20260506185334 25 242 0.0 0.0 0.00 0.00 0.00 71 1005.2
20260506184831 25 314 3.2 4.8 0.00 0.00 0.00 69 1005.2
20260506184328 26 266 0.0 0.0 0.00 0.00 0.00 67 1004.9
20260506183826 25 271 0.0 0.0 0.00 0.00 0.00 66 1004.9
20260506183320 25 210 0.0 0.0 0.00 0.00 0.00 68 1005.2
20260506182818 25 29 0.0 0.0 0.00 0.00 0.00 67 1004.9
20260506182315 25 279 0.0 0.0 0.00 0.00 0.00 68 1004.6
20260506181813 25 230 0.0 0.0 0.00 0.00 0.00 68 1004.6
20260506181310 25 245 0.0 0.0 0.00 0.00 0.00 68 1004.9
20260506180808 25 215 0.0 0.0 0.00 0.00 0.00 69 1004.9
20260506180303 25 217 0.0 0.0 0.00 0.00 0.00 69 1004.9
20260506175800 24 258 0.0 0.0 0.00 0.00 0.00 68 1004.9
20260506175257 24 216 0.0 0.0 0.00 0.00 0.00 69 1004.9
20260506174754 23 214 0.0 0.0 0.00 0.00 0.00 68 1004.9
20260506174251 23 273 0.0 0.0 0.00 0.00 0.00 68 1004.6
20260506173749 23 221 0.0 0.0 0.00 0.00 0.00 69 1004.6
20260506173245 22 256 0.0 0.0 0.00 0.00 0.00 69 1004.9
20260506172742 22 203 0.0 0.0 0.00 0.00 0.00 70 1004.9
20260506172239 22 157 0.0 0.0 0.00 0.00 0.00 71 1004.9
20260506171736 21 240 0.0 0.0 0.00 0.00 0.00 70 1004.9
20260506171233 21 254 0.0 0.0 0.00 0.00 0.00 70 1004.9
20260506170731 20 209 0.0 0.0 0.00 0.00 0.00 73 1004.9
20260506170227 20 224 0.0 0.0 0.00 0.00 0.00 72 1005.2
20260506165726 20 219 0.0 0.0 0.00 0.00 0.00 72 1004.9
20260506165222 19 241 0.0 0.0 0.00 0.00 0.00 71 1005.2
20260506164720 19 224 0.0 0.0 0.00 0.00 0.00 72 1005.2
20260506164217 18 324 0.0 0.0 0.00 0.00 0.00 72 1005.2
20260506163713 18 254 0.0 0.0 0.00 0.00 0.00 72 1005.7
20260506163208 18 130 0.0 0.0 0.00 0.00 0.00 73 1005.7
20260506162705 18 236 0.0 0.0 0.00 0.00 0.00 73 1006.0
20260506162202 18 343 0.0 4.8 0.00 0.00 0.00 72 1006.0
20260506161659 18 333 0.0 0.0 0.00 0.00 0.00 75 1006.0
20260506161156 19 252 0.0 0.0 0.00 0.00 0.00 75 1006.4
20260506160654 20 235 0.0 0.0 0.00 0.00 0.00 75 1006.4
20260506160150 20 241 0.0 0.0 0.00 0.00 0.00 75 1006.7
20260506155649 21 258 0.0 0.0 0.00 0.00 0.00 75 1006.7
20260506155146 22 245 0.0 0.0 0.00 0.00 0.00 74 1006.4
20260506153248 24 231 0.0 0.0 0.00 0.00 0.00 73 1005.2
20260506152744 25 272 0.0 0.0 0.00 0.00 0.00 72 1004.9
20260506152242 25 228 0.0 0.0 0.00 0.00 0.00 72 1004.9
20260506151741 25 225 0.0 0.0 0.00 0.00 0.00 72 1004.6
20260506151237 25 201 0.0 0.0 0.00 0.00 0.00 72 1004.6
20260506150733 25 223 0.0 0.0 0.00 0.00 0.00 71 1004.6
20260506150231 24 222 0.0 0.0 0.00 0.00 0.00 72 1004.2
20260506145728 24 224 0.0 0.0 0.00 0.00 0.00 72 1004.6
20260506145224 24 209 0.0 0.0 0.00 0.00 0.00 71 1004.2
20260506144722 24 204 0.0 0.0 0.00 0.00 0.00 71 1003.9
20260506144219 24 189 0.0 0.0 0.00 0.00 0.00 71 1003.9
20260506143716 23 235 0.0 0.0 0.00 0.00 0.00 71 1003.9
20260506143214 23 246 0.0 4.8 0.00 0.00 0.00 71 1003.9
20260506142712 23 221 0.0 0.0 0.00 0.00 0.00 72 1003.9
20260506142210 23 229 0.0 0.0 0.00 0.00 0.00 72 1003.5
20260506141707 23 216 0.0 0.0 0.00 0.00 0.00 73 1003.2
20260506141205 23 222 0.0 0.0 0.00 0.00 0.00 74 1003.2
20260506140703 23 213 0.0 0.0 0.00 0.00 0.00 74 1003.5
20260506140159 23 197 0.0 0.0 0.00 0.00 0.00 74 1003.5
20260506135656 23 228 0.0 0.0 0.00 0.00 0.00 74 1003.9
20260506135153 23 225 0.0 0.0 0.00 0.00 0.00 74 1003.9
20260506134649 23 224 0.0 0.0 0.00 0.00 0.00 74 1003.5
20260506134145 23 224 0.0 0.0 0.00 0.00 0.00 74 1003.2
20260506133643 23 239 0.0 0.0 0.00 0.00 0.00 74 1002.9
20260506133139 23 228 0.0 0.0 0.00 0.00 0.00 74 1003.2
20260506132637 23 231 0.0 0.0 0.00 0.00 0.00 74 1002.9
20260506132133 23 229 0.0 0.0 0.00 0.00 0.00 74 1002.9
20260506131631 23 232 0.0 0.0 0.00 0.00 0.00 74 1002.9
20260506131127 23 197 0.0 0.0 0.00 0.00 0.00 74 1002.9
20260506130624 23 238 0.0 0.0 0.00 0.00 0.00 74 1002.5
20260506130122 22 218 0.0 0.0 0.00 0.00 0.00 74 1002.9
20260506125620 22 217 0.0 0.0 0.00 0.00 0.00 75 1002.5
20260506125117 22 240 0.0 0.0 0.00 0.00 0.00 75 1002.5
20260506124615 22 221 0.0 0.0 0.00 0.00 0.00 75 1002.5
20260506124113 22 187 0.0 0.0 0.00 0.00 0.00 75 1002.5
20260506123610 22 218 0.0 0.0 0.00 0.00 0.00 75 1002.9
20260506123108 22 218 0.0 0.0 0.00 0.00 0.00 75 1002.9
20260506122604 22 222 0.0 0.0 0.00 0.00 0.00 75 1002.5
20260506122103 22 216 0.0 0.0 0.00 0.00 0.00 75 1002.5
20260506121600 22 219 0.0 0.0 0.00 0.00 0.00 75 1002.5
20260506121056 22 217 0.0 0.0 0.00 0.00 0.00 75 1002.5
20260506120554 23 218 0.0 0.0 0.00 0.00 0.00 75 1002.5
20260506120051 23 218 0.0 0.0 0.00 0.00 0.00 74 1002.5
20260506115549 23 218 0.0 0.0 0.00 0.00 0.00 74 1002.5
20260506115048 23 218 0.0 0.0 0.00 0.00 0.00 74 1002.1
20260506114544 23 217 0.0 0.0 0.00 0.00 0.00 74 1002.5
20260506114043 23 230 0.0 0.0 0.00 0.00 0.00 74 1002.1
20260506113540 23 221 0.0 0.0 0.00 0.00 0.00 74 1002.1
20260506113037 23 221 0.0 0.0 0.00 0.00 0.00 74 1002.1
20260506112534 23 221 0.0 0.0 0.00 0.00 0.00 74 1002.5
20260506112031 23 221 0.0 0.0 0.00 0.00 0.00 74 1002.1
20260506111529 23 221 0.0 0.0 0.00 0.00 0.00 74 1002.5
20260506111026 23 221 0.0 0.0 0.00 0.00 0.00 74 1002.5
20260506110524 23 221 0.0 0.0 0.00 0.00 0.00 74 1002.1
20260506110021 23 216 0.0 0.0 0.00 0.00 0.00 74 1002.1
20260506105517 23 216 0.0 0.0 0.00 0.00 0.00 74 1002.1
20260506105014 23 216 0.0 0.0 0.00 0.00 0.00 74 1002.1
20260506104512 23 208 0.0 0.0 0.00 0.00 0.00 74 1002.1
20260506104010 23 200 0.0 0.0 0.00 0.00 0.00 74 1001.8
20260506103507 23 215 0.0 0.0 0.00 0.00 0.00 74 1002.1
20260506103003 23 224 0.0 0.0 0.00 0.00 0.00 74 1001.8
20260506102502 23 228 0.0 0.0 0.00 0.00 0.00 74 1001.8
20260506101959 23 217 0.0 0.0 0.00 0.00 0.00 74 1001.8
20260506101455 23 227 0.0 0.0 0.00 0.00 0.00 74 1001.8
20260506100953 22 212 0.0 0.0 0.00 0.00 0.00 74 1001.8
20260506100451 22 178 0.0 0.0 0.00 0.00 0.00 74 1001.8
20260506095949 22 204 0.0 4.8 0.00 0.00 0.00 74 1001.4
20260506095447 22 169 0.0 0.0 0.00 0.00 0.00 74 1001.4
20260506094942 22 197 0.0 0.0 0.00 0.00 0.00 74 1001.4
20260506094441 22 266 0.0 0.0 0.00 0.00 0.00 74 1001.4
20260506093938 22 220 0.0 0.0 0.00 0.00 0.00 75 1001.4
20260506093437 23 215 0.0 0.0 0.00 0.00 0.00 75 1001.4
20260506092934 23 147 1.6 4.8 0.00 0.00 0.00 75 1001.4
20260506092432 23 216 0.0 0.0 0.00 0.00 0.00 75 1001.1
20260506091928 23 170 0.0 4.8 0.00 0.00 0.00 75 1001.1
20260506091426 23 218 0.0 0.0 0.00 0.00 0.00 75 1001.1
20260506090923 23 232 0.0 0.0 0.00 0.00 0.00 75 1001.1
20260506090421 23 214 0.0 0.0 0.00 0.00 0.00 75 1001.1
20260506085917 23 205 0.0 4.8 0.00 0.00 0.00 75 1000.7
20260506085414 23 217 0.0 0.0 0.00 0.00 0.00 75 1000.7
20260506084910 23 239 0.0 0.0 0.00 0.00 0.00 75 1000.7
20260506084407 23 194 0.0 0.0 0.00 0.00 0.00 75 1001.1
20260506083903 23 232 0.0 0.0 0.00 0.00 0.00 75 1000.7
20260506083401 23 180 1.6 4.8 0.00 0.00 0.00 75 1001.1
20260506082858 23 143 4.8 8.0 0.00 0.00 0.00 75 1000.7
20260506082355 23 196 0.0 0.0 0.00 0.00 0.00 75 1001.1
20260506081851 23 161 4.8 8.0 0.00 0.00 0.00 75 1001.1
20260506081349 23 186 0.0 0.0 0.00 0.00 0.00 75 1001.1
20260506080846 23 245 0.0 0.0 0.00 0.00 0.00 75 1001.1
20260506080343 23 240 0.0 0.0 0.00 0.00 0.00 75 1001.1
20260506073327 23 153 1.6 8.0 0.00 0.00 0.00 75 1001.4
20260506072824 23 182 1.6 4.8 0.00 0.00 0.00 74 1001.4
20260506072321 23 221 0.0 0.0 0.00 0.00 0.00 74 1001.8
20260506071819 23 228 0.0 4.8 0.00 0.00 0.00 74 1001.4
20260506071317 23 211 0.0 0.0 0.00 0.00 0.00 74 1001.8
20260506070814 23 218 0.0 4.8 0.00 0.00 0.00 74 1001.8
20260506070311 23 124 0.0 4.8 0.00 0.00 0.00 74 1001.8
20260506062248 23 212 8.0 16.1 0.00 0.00 0.00 75 1001.4
20260506061744 23 229 0.0 0.0 0.00 0.00 0.00 75 1001.8
20260506061241 23 162 0.0 0.0 0.00 0.00 0.00 75 1001.8
20260506060739 23 200 0.0 0.0 0.00 0.00 0.00 75 1001.4
20260506060237 23 217 0.0 0.0 0.00 0.00 0.00 75 1001.8
20260506051208 23 251 0.0 0.0 0.00 0.00 0.00 74 1001.4
20260506050707 23 220 0.0 0.0 0.00 0.00 0.00 74 1001.8
20260506050203 23 165 3.2 8.0 0.00 0.00 0.00 74 1001.4
20260506044654 23 179 0.0 0.0 0.00 0.00 0.00 75 1001.8
20260506044151 23 191 0.0 0.0 0.00 0.00 0.00 75 1001.8
20260506043648 23 206 0.0 0.0 0.00 0.00 0.00 75 1001.8
20260506043146 23 234 0.0 0.0 0.00 0.00 0.00 75 1001.8
20260506042645 23 212 1.6 8.0 0.00 0.00 0.00 75 1001.8
20260506042143 23 194 0.0 0.0 0.00 0.00 0.00 75 1001.4
20260506041641 23 189 3.2 4.8 0.00 0.00 0.00 75 1001.4
20260506041137 23 209 1.6 8.0 0.00 0.00 0.00 75 1001.4
20260506040635 23 207 0.0 0.0 0.00 0.00 0.00 75 1001.4
20260506040132 23 220 0.0 0.0 0.00 0.00 0.00 75 1001.4
20260506035629 23 226 0.0 0.0 0.00 0.00 0.00 75 1001.4
20260506035125 23 204 0.0 0.0 0.00 0.00 0.00 75 1001.1
20260506034623 24 219 0.0 0.0 0.00 0.00 0.00 76 1001.1
20260506034120 24 197 1.6 4.8 0.00 0.00 0.00 76 1001.1
20260506033617 24 214 0.0 0.0 0.00 0.00 0.00 76 1001.1
20260506033114 24 187 0.0 0.0 0.00 0.00 0.00 76 1001.1
20260506032611 24 270 0.0 0.0 0.00 0.00 0.00 76 1001.1
20260506032108 24 188 0.0 4.8 0.00 0.00 0.00 76 1001.1
20260506031605 24 256 0.0 0.0 0.00 0.00 0.00 77 1000.7
20260506031102 24 196 1.6 4.8 0.00 0.00 0.00 77 1000.7
20260506030600 24 208 0.0 0.0 0.00 0.00 0.00 76 1000.7
20260506030057 24 186 0.0 0.0 0.00 0.00 0.00 77 1000.7
20260506025554 25 210 0.0 0.0 0.00 0.00 0.00 76 1000.7
20260506025050 25 168 0.0 4.8 0.00 0.00 0.00 76 1000.7
20260506024547 25 227 0.0 0.0 0.00 0.00 0.00 76 1000.7
20260506024044 25 223 0.0 0.0 0.00 0.00 0.00 76 1000.7
20260506023539 25 197 0.0 0.0 0.00 0.00 0.00 76 1000.4
20260506023037 25 229 0.0 0.0 0.00 0.00 0.00 76 1000.1
20260506022535 25 177 0.0 4.8 0.00 0.00 0.00 76 1000.1
20260506022032 25 218 0.0 0.0 0.00 0.00 0.00 76 1000.1
20260506021529 25 228 0.0 0.0 0.00 0.00 0.00 76 1000.1
20260506021027 25 206 0.0 0.0 0.00 0.00 0.00 76 1000.1
20260506020524 25 219 0.0 0.0 0.00 0.00 0.00 75 999.7
20260506020021 25 219 0.0 0.0 0.00 0.00 0.00 75 999.7
20260506015519 25 205 0.0 0.0 0.00 0.00 0.00 75 999.7
20260506015015 25 215 0.0 0.0 0.00 0.00 0.00 75 999.7
20260506014513 25 182 0.0 0.0 0.00 0.00 0.00 75 999.7
20260506014009 25 209 0.0 0.0 0.00 0.00 0.00 75 999.4
20260506013507 26 227 0.0 0.0 0.00 0.00 0.00 74 999.4
20260506013003 26 218 0.0 0.0 0.00 0.00 0.00 74 999.7
20260506012459 26 233 0.0 0.0 0.00 0.00 0.00 73 999.4
20260506011956 26 217 0.0 0.0 0.00 0.00 0.00 73 999.4
20260506011454 26 217 0.0 0.0 0.00 0.00 0.00 72 999.4
20260506010950 26 191 0.0 0.0 0.00 0.00 0.00 72 999.7